{"data":{"norad_id":45151,"epoch":"2026-09-20T01:50:38.397984Z","epoch_age_seconds":47691,"freshness":"FRESH","line1":"1 45151U 20008W   26263.07683331 -.00000527  00000+0 -15227-2 0  9990","line2":"2 45151  87.8973   2.2019 0001912 100.0853 260.0491 13.11416780322847","mean_motion":13.1141678,"eccentricity":0.0001912,"inclination_deg":87.8973,"raan_deg":2.2019,"arg_perigee_deg":100.0853,"mean_anomaly_deg":260.0491,"bstar":-0.0015227,"rev_number":32284,"period_min":109.8049088559,"perigee_km":1216.2310146534,"apogee_km":1219.1356563497,"semimajor_km":7595.8203355016,"source":"CELESTRAK","updated_at":"2026-09-20T09:00:44.548846Z"}}